Theta_e
349 351 350 348 348 347 344 344 344 343 340 334 343 339 346 345 347 348 344 348 348 349 348 351 348 347 348 341 346 346 342 345 340
345 347 348 348 350 348 347 345 345 344 342 335 336 340 341 342 341 347 348 346 351 348 348 349 350 349 345 344 344 345 345 341 340
342 344 347 347 348 349 349 348 347 347 346 344 341 339 340 340 341 339 341 347 350 347 349 349 339 349 346 348 351 348 347 344 350
339 342 344 344 346 341 347 349 349 350 348 349 348 347 344 342 342 342 344 343 348 351 348 348 343 346 344 346 350 348 345 346 347
338 341 341 342 345 347 348 349 348 349 348 347 348 348 347 347 344 343 342 342 344 347 349 347 349 346 349 349 348 344 342 343 349
336 337 337 339 342 344 345 344 344 342 343 341 335 335 344 348 349 348 345 343 343 344 345 340 348 352 350 345 347 351 347 345 344
333 334 335 336 337 339 341 343 342 342 341 337 334 337 346 348 348 350 348 349 350 348 348 346 337 340 339 347 348 347 347 348 349
331 333 333 334 335 334 334 339 341 339 338 335 339 337 339 346 348 348 349 350 351 353 354 353 350 344 340 340 339 341 347 345 347
329 327 328 330 330 332 333 333 333 335 338 341 342 343 346 344 341 341 349 349 350 353 353 352 352 352 349 346 346 346 341 342 349
328 327 325 325 325 324 329 327 332 333 333 332 334 337 340 342 345 347 347 348 348 348 351 352 352 353 352 351 350 349 347 347 347
326 324 322 322 323 322 321 324 326 329 332 331 332 332 333 331 330 340 342 344 348 348 348 349 349 352 352 353 353 353 350 348 349
324 322 320 320 321 321 319 320 322 322 323 325 326 325 328 329 327 326 328 336 340 344 348 350 349 351 351 351 352 352 352 351 348
321 320 319 317 318 319 318 318 318 320 322 322 321 319 317 316 318 324 327 326 325 325 333 339 341 342 344 348 350 350 351 350 350
318 316 316 315 316 315 315 314 314 316 316 317 317 315 315 316 316 315 317 322 323 320 322 322 323 328 338 341 340 342 345 347 348
316 315 315 315 315 314 314 314 312 312 312 312 310 309 309 309 311 312 314 315 316 316 317 319 323 324 323 328 335 337 340 342 346
315 315 314 314 313 313 313 313 313 313 313 310 309 308 308 307 308 308 309 310 312 315 317 321 325 328 328 326 324 328 329 340 343
314 314 313 313 313 313 312 312 311 309 308 306 304 304 304 305 306 308 311 312 313 314 318 322 325 328 330 328 323 323 323 321 324
313 313 313 313 312 313 312 312 309 306 305 305 305 305 305 306 307 310 312 312 313 315 316 319 321 322 323 322 322 321 321 322 323
313 313 313 312 313 312 311 307 305 305 305 305 305 306 306 307 309 310 311 312 313 311 312 316 318 319 321 321 321 322 322 324 325
312 313 311 311 311 309 308 308 306 304 304 304 305 305 306 307 309 311 312 313 314 315 313 311 314 318 321 321 322 322 323 324 324
Wind_Speed
6 16 14 25 17 14 34 34 26 22 24 25 24 19 18 14 13 6 11 11 13 9 11 11 12 9 8 10 13 9 12 7 9
17 12 9 13 13 16 26 33 33 24 21 24 22 21 18 17 14 14 12 9 7 10 14 12 15 12 9 11 9 11 7 9 12
20 11 9 20 15 12 16 26 31 32 23 21 21 17 20 19 18 15 14 14 12 14 12 11 12 15 11 12 9 7 9 8 7
14 20 21 18 15 28 21 19 27 25 24 18 15 20 19 20 19 18 20 22 15 13 15 6 4 9 9 14 11 9 9 11 11
16 20 22 17 14 13 15 24 25 21 23 19 9 8 20 22 21 20 21 22 20 17 17 14 10 8 15 11 9 4 5 9 13
19 23 21 19 18 13 7 15 21 19 24 20 9 27 21 22 24 21 21 22 24 19 18 18 17 12 17 13 10 12 10 7 7
21 25 24 25 25 24 20 17 13 17 23 12 11 15 13 20 25 22 21 22 21 20 17 17 21 21 18 15 15 16 13 11 12
23 23 24 24 23 26 26 24 19 13 14 12 8 2 17 16 23 17 22 21 21 22 21 19 17 17 19 18 18 18 17 16 15
23 23 23 24 24 25 23 25 24 21 17 11 8 13 14 17 14 23 20 24 24 24 22 23 22 20 19 20 19 19 18 16 16
24 23 22 22 22 22 20 24 19 20 20 18 18 15 10 4 10 19 19 18 22 23 27 27 25 24 23 23 22 22 20 19 22
20 20 21 18 20 22 15 17 19 18 17 14 13 14 13 12 11 5 1 6 8 9 17 24 26 25 24 24 24 23 24 25 26
18 17 17 16 11 11 15 12 14 14 11 6 7 10 9 9 10 10 7 5 3 10 12 13 15 18 23 23 24 25 26 27 27
18 14 12 12 10 9 5 6 8 9 5 2 3 4 5 5 5 6 6 7 6 7 4 6 11 11 13 15 19 19 22 22 25
15 11 11 8 4 6 6 4 3 3 1 3 5 6 6 5 4 3 4 5 7 8 7 7 8 8 9 12 16 16 16 19 21
16 13 11 7 4 5 3 3 3 3 4 7 8 8 9 10 10 9 9 9 9 10 10 10 11 11 10 8 8 10 14 18 16
15 12 9 4 3 3 2 4 4 4 7 10 11 11 11 11 10 11 12 12 12 12 12 12 13 17 19 15 12 12 13 14 17
15 12 10 6 6 2 3 7 8 8 11 11 11 11 11 11 10 9 8 9 10 11 11 11 12 14 17 23 22 18 18 19 18
11 9 8 6 4 3 4 9 11 11 11 12 11 11 11 10 10 11 13 13 14 13 12 12 18 18 21 24 26 23 23 22 22
10 10 8 5 5 7 10 10 8 10 12 12 12 12 10 10 11 12 13 14 16 15 17 20 19 18 23 24 26 24 23 24 23
11 10 6 8 9 7 7 10 11 12 13 13 13 15 14 14 12 12 13 13 16 20 20 18 21 20 17 22 21 21 24 22 25
Wind_Direction
39 199 167 191 207 173 187 190 199 193 193 186 188 194 188 188 199 158 180 159 164 173 196 202 199 203 211 197 191 197 195 196 191
49 58 194 207 212 187 194 191 196 202 189 190 191 193 194 196 210 191 170 175 183 190 199 218 222 216 214 205 200 195 200 204 197
97 72 130 193 216 208 187 178 187 196 198 200 195 195 202 202 205 210 203 203 209 216 223 222 214 210 189 198 196 208 214 205 190
85 91 95 153 168 183 212 179 176 182 189 184 196 197 214 217 208 209 207 212 198 212 221 213 188 202 185 194 201 217 226 209 203
95 97 97 105 116 165 187 153 167 180 189 199 229 223 225 221 217 210 212 214 215 218 228 222 215 217 200 202 187 201 202 221 227
100 97 88 91 96 97 129 177 180 186 209 210 271 285 253 220 221 213 211 215 220 217 219 229 218 207 213 222 216 227 225 211 217
98 98 96 88 85 85 85 113 141 180 178 167 231 247 277 226 217 211 221 223 214 215 213 218 223 230 239 231 234 236 233 240 230
102 103 99 97 91 83 80 86 94 124 176 198 157 235 261 250 217 218 216 219 223 218 217 229 228 226 226 230 230 234 238 243 245
114 103 100 102 100 97 88 83 83 90 104 126 166 207 221 234 242 264 234 217 214 216 218 222 228 234 239 237 237 242 244 241 247
110 113 106 102 98 89 103 91 91 80 77 84 88 88 98 151 204 222 237 240 223 214 219 220 223 230 233 237 241 245 243 234 247
114 106 103 102 98 92 87 104 99 96 84 78 78 82 81 82 71 80 218 266 263 235 224 227 226 229 234 239 243 243 241 238 240
123 110 105 95 101 115 94 94 107 106 99 104 91 85 80 67 61 62 55 49 340 265 254 258 240 231 230 229 238 244 248 251 247
127 129 123 108 111 114 123 81 104 112 118 111 65 52 48 52 47 46 35 42 33 8 352 286 286 279 277 264 254 249 251 254 259
125 119 114 120 112 83 62 50 63 76 333 336 334 322 318 316 323 324 330 329 330 338 343 342 341 328 294 280 276 270 271 265 261
127 117 116 125 118 76 62 341 348 347 335 325 313 311 309 309 309 306 304 304 305 312 323 329 325 322 323 321 312 308 279 264 270
140 145 141 139 108 106 336 331 330 315 308 301 304 311 309 305 302 307 308 303 301 300 311 321 327 320 315 312 308 313 315 303 273
145 143 141 145 146 102 336 310 310 311 302 309 311 307 311 321 324 324 324 318 319 312 299 296 294 299 300 300 304 296 294 293 291
153 154 165 173 141 178 252 283 310 313 316 319 318 320 318 310 303 303 302 298 296 289 275 285 304 282 287 293 297 305 309 301 292
165 175 185 161 200 246 275 299 312 316 320 326 320 323 320 322 314 306 307 303 298 283 274 263 263 286 281 285 292 298 303 303 307
182 195 225 236 263 287 317 310 317 317 322 322 317 318 320 314 316 312 316 312 307 310 294 281 267 268 271 276 286 293 296 294 296